星链-5106 (STARLINK-5106 )

导读

STARLINK-5106是美国SpaceX公司星链(Starlink)星座中的一颗卫星,于2022年12月28日发射入轨,属于星链项目的扩容卫星。星链星座旨在构建全球卫星互联网,为全球偏远、无网络覆盖区域提供高速宽带服务,该卫星也是SpaceX推进低轨卫星通信网络部署的一环。

基本信息
目录编号:
54823
目录名称:
STARLINK-5106
国际标识:
2022-177D
轨道中心:
EARTH
卫星名称:
星链-5106
卫星全名:
星链-5106 (STARLINK-5106 )
卫星状态:
在轨 (已飞行1265 天)
发射日期:
2022-12-28 UTC
国别 :
美国 (US)
星等 :
--
轨道信息
数据来源 国际轨道数据 AOE轨道数据
星历时间 2026-06-14T10:57:48+0800
1天前
查看轨道信息
2026-06-12T07:00:00+0800
3天前
查看轨道信息
半长轴 6861.197km 6861.192km
偏心率 0.0000903 0.0001439
轨道倾角 43.000° 43.005°
近地点辐角 282.287° 262.290°
升交点赤经 311.290° 323.518°
平近点角 77.788° 57.119°
近地点 482.44km 482.067km
远地点 483.68km 484.043km
周期 94.267分钟 94.267分钟
每日圈数 15.275766 15.275781
详细信息
固有亮度:
5
最大亮度:
2.5
卫星平台:
Starlink v1.5
覆盖范围:
全球
运营商:
太空探索技术公司
运营商所在国:
美国
制造商(研发单位):
太空探索技术公司
制造商所在国:
美国
使用方式:
暂无
卫星简介
星链(Starlink)计划是由太空探索技术公司(SpaceX)提出的一个巨型低轨卫星互联网星座项目,计划在2019年至2024年间在太空搭建由约1.2万颗卫星组成的“星链”网络,其中1584颗将部署在地球上空550千米处的近地轨道,并从2020年开始工作。该卫星仍在工作。
2D轨道图
3D轨道图
轨道高度分析图
轨道倾角分析图
轨道综合分析图
查看轨道综合分析图